EAI59L EGPH-EIDW

Flight info

Callsign EAI59L
Flight time 0h 52m
Altitude 18000
Route TLA DCT TRN P600 BLACA P620 NIMAT NIMAT4L
Aircraft AT76/M-SDFGIRY/S

Departure

Time 2026-05-07 19:54
Airport Edinburgh Airport (EGPH)

Arrival

Time 2026-05-07 20:47
Airport Dublin Airport (EIDW)
Time Latitude Longitude Altitude Speed Heading
2026-05-07 19:23 55.94801 -3.36636 113 ft 0 kts 89°
2026-05-07 19:46 55.94801 -3.36644 113 ft 2 kts 89°
2026-05-07 19:46 55.94800 -3.36678 111 ft 3 kts 89°
2026-05-07 19:47 55.94800 -3.36712 112 ft 3 kts 88°
2026-05-07 19:47 55.94797 -3.36746 111 ft 3 kts 62°
2026-05-07 19:47 55.94787 -3.36768 112 ft 3 kts 11°
2026-05-07 19:47 55.94771 -3.36767 113 ft 2 kts 332°
2026-05-07 19:48 55.94767 -3.36763 113 ft 0 kts 329°
2026-05-07 19:49 55.94775 -3.36771 113 ft 5 kts 333°
2026-05-07 19:49 55.94841 -3.36778 113 ft 14 kts 359°
2026-05-07 19:50 55.94945 -3.36817 112 ft 15 kts 19°
2026-05-07 19:50 55.94994 -3.36694 111 ft 14 kts 60°
2026-05-07 19:50 55.95050 -3.36527 112 ft 17 kts 59°
2026-05-07 19:50 55.95119 -3.36329 112 ft 20 kts 55°
2026-05-07 19:51 55.95192 -3.36106 112 ft 21 kts 61°
2026-05-07 19:51 55.95271 -3.35874 112 ft 22 kts 59°
2026-05-07 19:51 55.95350 -3.35638 112 ft 22 kts 60°
2026-05-07 19:51 55.95423 -3.35430 113 ft 17 kts 52°
2026-05-07 19:52 55.95491 -3.35430 111 ft 10 kts 328°
2026-05-07 19:52 55.95548 -3.35493 110 ft 12 kts 329°
2026-05-07 19:52 55.95571 -3.35567 109 ft 0 kts 239°
2026-05-07 19:53 55.95564 -3.35586 109 ft 16 kts 238°
2026-05-07 19:53 55.95392 -3.36090 107 ft 77 kts 239°
2026-05-07 19:54 55.95036 -3.37148 173 ft 114 kts 234°
2026-05-07 19:54 55.94612 -3.38368 660 ft 116 kts 234°
2026-05-07 19:54 55.94187 -3.39590 1264 ft 116 kts 232°
2026-05-07 19:54 55.93765 -3.40803 1818 ft 115 kts 233°
2026-05-07 19:55 55.93355 -3.42000 2356 ft 114 kts 233°
2026-05-07 19:55 55.92940 -3.43193 2914 ft 113 kts 234°
2026-05-07 19:55 55.92528 -3.44376 3471 ft 112 kts 235°
2026-05-07 19:55 55.92095 -3.45583 3726 ft 125 kts 235°
2026-05-07 19:56 55.91565 -3.47017 3741 ft 150 kts 234°
2026-05-07 19:56 55.90955 -3.48639 3967 ft 160 kts 234°
2026-05-07 19:56 55.90335 -3.50303 4381 ft 161 kts 234°
2026-05-07 19:56 55.89697 -3.51955 4748 ft 163 kts 234°
2026-05-07 19:57 55.89050 -3.53626 5121 ft 164 kts 234°
2026-05-07 19:57 55.88400 -3.55313 5512 ft 165 kts 232°
2026-05-07 19:57 55.87692 -3.56924 5886 ft 166 kts 230°
2026-05-07 19:57 55.86952 -3.58506 6266 ft 167 kts 230°
2026-05-07 19:58 55.86221 -3.60081 6612 ft 168 kts 230°
2026-05-07 19:58 55.85470 -3.61717 6964 ft 168 kts 230°
2026-05-07 19:58 55.84728 -3.63331 7329 ft 168 kts 230°
2026-05-07 19:58 55.83993 -3.64921 7670 ft 170 kts 230°
2026-05-07 19:59 55.83243 -3.66551 8021 ft 171 kts 231°
2026-05-07 19:59 55.82494 -3.68190 8384 ft 171 kts 231°
2026-05-07 19:59 55.81747 -3.69838 8727 ft 171 kts 231°
2026-05-07 19:59 55.80998 -3.71491 9084 ft 172 kts 231°
2026-05-07 20:00 55.80244 -3.73153 9429 ft 173 kts 231°
2026-05-07 20:00 55.79487 -3.74820 9760 ft 173 kts 231°
2026-05-07 20:00 55.78728 -3.76493 10065 ft 174 kts 231°
2026-05-07 20:00 55.77963 -3.78175 10344 ft 175 kts 231°
2026-05-07 20:01 55.77194 -3.79861 10652 ft 176 kts 231°
2026-05-07 20:01 55.76423 -3.81553 10947 ft 176 kts 230°
2026-05-07 20:01 55.75648 -3.83240 11242 ft 176 kts 227°
2026-05-07 20:01 55.74635 -3.84447 11481 ft 178 kts 209°
2026-05-07 20:02 55.73531 -3.85462 11748 ft 179 kts 210°
2026-05-07 20:02 55.72446 -3.86508 12028 ft 180 kts 211°
2026-05-07 20:02 55.71362 -3.87638 12315 ft 181 kts 213°
2026-05-07 20:02 55.70292 -3.88818 12589 ft 181 kts 213°
2026-05-07 20:03 55.69223 -3.90011 12873 ft 182 kts 213°
2026-05-07 20:03 55.68152 -3.91214 13138 ft 183 kts 213°
2026-05-07 20:03 55.67077 -3.92420 13407 ft 183 kts 213°
2026-05-07 20:03 55.65992 -3.93626 13675 ft 184 kts 213°
2026-05-07 20:04 55.64906 -3.94847 13892 ft 185 kts 214°
2026-05-07 20:04 55.63828 -3.96092 14136 ft 185 kts 214°
2026-05-07 20:04 55.62761 -3.97332 14375 ft 185 kts 214°
2026-05-07 20:04 55.61672 -3.98565 14601 ft 186 kts 213°
2026-05-07 20:05 55.60578 -3.99794 14817 ft 187 kts 213°
2026-05-07 20:05 55.59478 -4.01024 15031 ft 187 kts 213°
2026-05-07 20:05 55.58371 -4.02259 15241 ft 188 kts 213°
2026-05-07 20:05 55.57265 -4.03489 15465 ft 188 kts 213°
2026-05-07 20:06 55.56157 -4.04726 15667 ft 188 kts 213°
2026-05-07 20:06 55.55042 -4.05964 15883 ft 189 kts 213°
2026-05-07 20:06 55.53928 -4.07204 16105 ft 189 kts 213°
2026-05-07 20:06 55.52824 -4.08432 16311 ft 190 kts 213°
2026-05-07 20:07 55.51706 -4.09673 16523 ft 190 kts 213°
2026-05-07 20:07 55.50585 -4.10918 16727 ft 191 kts 213°
2026-05-07 20:07 55.49458 -4.12166 16909 ft 191 kts 213°
2026-05-07 20:07 55.48329 -4.13416 17092 ft 192 kts 213°
2026-05-07 20:08 55.47199 -4.14667 17285 ft 192 kts 213°
2026-05-07 20:08 55.46065 -4.15923 17456 ft 193 kts 213°
2026-05-07 20:08 55.44930 -4.17180 17642 ft 193 kts 213°
2026-05-07 20:08 55.43790 -4.18438 17801 ft 194 kts 213°
2026-05-07 20:09 55.42638 -4.19711 17887 ft 198 kts 213°
2026-05-07 20:09 55.41456 -4.21017 17927 ft 204 kts 213°
2026-05-07 20:09 55.40231 -4.22368 17935 ft 211 kts 213°
2026-05-07 20:10 55.37676 -4.25181 17947 ft 221 kts 213°
2026-05-07 20:10 55.36361 -4.26629 17948 ft 225 kts 213°
2026-05-07 20:10 55.35026 -4.28096 17953 ft 228 kts 213°
2026-05-07 20:10 55.33670 -4.29584 17953 ft 231 kts 213°
2026-05-07 20:11 55.32322 -4.31066 17947 ft 233 kts 213°
2026-05-07 20:11 55.30938 -4.32584 17945 ft 235 kts 213°
2026-05-07 20:11 55.29545 -4.34109 17956 ft 236 kts 213°
2026-05-07 20:11 55.28147 -4.35640 17953 ft 238 kts 212°
2026-05-07 20:12 55.26741 -4.37176 17953 ft 239 kts 213°
2026-05-07 20:12 55.25329 -4.38721 17950 ft 239 kts 213°
2026-05-07 20:12 55.23915 -4.40264 17954 ft 240 kts 212°
2026-05-07 20:12 55.22494 -4.41814 17957 ft 241 kts 213°
2026-05-07 20:13 55.21072 -4.43367 17953 ft 241 kts 213°
2026-05-07 20:13 55.19646 -4.44920 17956 ft 241 kts 212°
2026-05-07 20:13 55.18238 -4.46453 17955 ft 241 kts 212°
2026-05-07 20:13 55.16793 -4.48023 17955 ft 241 kts 212°
2026-05-07 20:14 55.15382 -4.49556 17962 ft 241 kts 212°
2026-05-07 20:14 55.13954 -4.51105 17962 ft 242 kts 213°
2026-05-07 20:14 55.12522 -4.52658 17957 ft 242 kts 212°
2026-05-07 20:14 55.11090 -4.54213 17959 ft 243 kts 212°
2026-05-07 20:15 55.09653 -4.55766 17960 ft 243 kts 212°
2026-05-07 20:15 55.08218 -4.57320 17958 ft 243 kts 212°
2026-05-07 20:15 55.06783 -4.58872 17960 ft 243 kts 212°
2026-05-07 20:15 55.05346 -4.60425 17958 ft 243 kts 212°
2026-05-07 20:16 55.03911 -4.61971 17954 ft 242 kts 212°
2026-05-07 20:16 55.02476 -4.63519 17959 ft 242 kts 212°
2026-05-07 20:16 55.01041 -4.65062 17957 ft 242 kts 212°
2026-05-07 20:16 54.99604 -4.66611 17957 ft 242 kts 213°
2026-05-07 20:17 54.98169 -4.68156 17959 ft 242 kts 212°
2026-05-07 20:17 54.96732 -4.69696 17962 ft 242 kts 212°
2026-05-07 20:17 54.95316 -4.71219 17959 ft 242 kts 212°
2026-05-07 20:17 54.93880 -4.72758 17960 ft 242 kts 212°
2026-05-07 20:18 54.92445 -4.74297 17958 ft 242 kts 212°
2026-05-07 20:18 54.91011 -4.75834 17970 ft 242 kts 212°
2026-05-07 20:18 54.89572 -4.77374 17966 ft 243 kts 212°
2026-05-07 20:18 54.88133 -4.78911 17955 ft 243 kts 212°
2026-05-07 20:19 54.86693 -4.80449 17961 ft 243 kts 212°
2026-05-07 20:19 54.85254 -4.81984 17951 ft 243 kts 212°
2026-05-07 20:19 54.83813 -4.83521 17954 ft 243 kts 212°
2026-05-07 20:19 54.82373 -4.85054 17960 ft 243 kts 212°
2026-05-07 20:20 54.80934 -4.86585 17952 ft 243 kts 212°
2026-05-07 20:20 54.79495 -4.88117 17973 ft 243 kts 212°
2026-05-07 20:20 54.78074 -4.89627 17963 ft 243 kts 212°
2026-05-07 20:20 54.76635 -4.91156 17970 ft 243 kts 213°
2026-05-07 20:21 54.75200 -4.92674 17957 ft 243 kts 212°
2026-05-07 20:21 54.73750 -4.94183 17951 ft 243 kts 212°
2026-05-07 20:21 54.72292 -4.95670 17961 ft 243 kts 212°
2026-05-07 20:21 54.70838 -4.97178 17958 ft 243 kts 213°
2026-05-07 20:22 54.69410 -4.98719 17959 ft 243 kts 213°
2026-05-07 20:22 54.67981 -5.00282 17958 ft 243 kts 213°
2026-05-07 20:22 54.66544 -5.01822 17964 ft 243 kts 213°
2026-05-07 20:22 54.65122 -5.03327 17951 ft 243 kts 213°
2026-05-07 20:23 54.63681 -5.04850 17960 ft 243 kts 213°
2026-05-07 20:23 54.62238 -5.06370 17965 ft 243 kts 213°
2026-05-07 20:23 54.60796 -5.07889 17950 ft 243 kts 213°
2026-05-07 20:23 54.59350 -5.09410 17956 ft 243 kts 213°
2026-05-07 20:24 54.57909 -5.10920 17955 ft 243 kts 213°
2026-05-07 20:24 54.56462 -5.12438 17957 ft 243 kts 213°
2026-05-07 20:24 54.55020 -5.13951 17962 ft 243 kts 213°
2026-05-07 20:24 54.53573 -5.15468 17962 ft 243 kts 213°
2026-05-07 20:25 54.52128 -5.16980 17964 ft 243 kts 213°
2026-05-07 20:25 54.50685 -5.18487 17947 ft 243 kts 213°
2026-05-07 20:25 54.49240 -5.19999 17951 ft 243 kts 213°
2026-05-07 20:25 54.47791 -5.21513 17948 ft 243 kts 213°
2026-05-07 20:26 54.46344 -5.23019 17952 ft 243 kts 213°
2026-05-07 20:26 54.44898 -5.24529 17958 ft 243 kts 213°
2026-05-07 20:26 54.43450 -5.26036 17955 ft 243 kts 213°
2026-05-07 20:26 54.42003 -5.27544 17960 ft 243 kts 213°
2026-05-07 20:27 54.40553 -5.29048 17969 ft 243 kts 213°
2026-05-07 20:27 54.39105 -5.30554 17964 ft 243 kts 213°
2026-05-07 20:27 54.37671 -5.32043 17961 ft 244 kts 213°
2026-05-07 20:27 54.36218 -5.33548 17962 ft 244 kts 213°
2026-05-07 20:28 54.34766 -5.35048 17965 ft 244 kts 213°
2026-05-07 20:28 54.33319 -5.36551 17958 ft 244 kts 213°
2026-05-07 20:28 54.31865 -5.38057 17954 ft 244 kts 213°
2026-05-07 20:28 54.30409 -5.39549 17959 ft 244 kts 212°
2026-05-07 20:29 54.28940 -5.41029 17955 ft 244 kts 213°
2026-05-07 20:29 54.27487 -5.42526 17953 ft 244 kts 213°
2026-05-07 20:29 54.26034 -5.44028 17962 ft 244 kts 213°
2026-05-07 20:29 54.24574 -5.45529 17959 ft 244 kts 213°
2026-05-07 20:30 54.23118 -5.47024 17964 ft 244 kts 213°
2026-05-07 20:30 54.21685 -5.48496 17963 ft 244 kts 213°
2026-05-07 20:30 54.20222 -5.49995 17957 ft 244 kts 213°
2026-05-07 20:30 54.18763 -5.51494 17960 ft 245 kts 213°
2026-05-07 20:31 54.17302 -5.52994 17956 ft 245 kts 213°
2026-05-07 20:31 54.16339 -5.53982 17964 ft 245 kts 213°
2026-05-07 20:31 54.14877 -5.55481 17956 ft 245 kts 213°
2026-05-07 20:31 54.13413 -5.56980 17964 ft 245 kts 213°
2026-05-07 20:32 54.11948 -5.58478 17920 ft 247 kts 213°
2026-05-07 20:32 54.10435 -5.60031 17547 ft 259 kts 213°
2026-05-07 20:32 54.08864 -5.61640 17161 ft 269 kts 212°
2026-05-07 20:32 54.07227 -5.63287 16772 ft 276 kts 212°
2026-05-07 20:33 54.05550 -5.64965 16382 ft 282 kts 212°
2026-05-07 20:33 54.03860 -5.66682 15991 ft 282 kts 212°
2026-05-07 20:33 54.02193 -5.68405 15613 ft 278 kts 213°
2026-05-07 20:33 54.00556 -5.70128 15243 ft 275 kts 213°
2026-05-07 20:34 53.98927 -5.71799 14892 ft 273 kts 212°
2026-05-07 20:34 53.97305 -5.73449 14533 ft 272 kts 212°
2026-05-07 20:34 53.95574 -5.74557 14189 ft 273 kts 190°
2026-05-07 20:34 53.93678 -5.74679 13840 ft 273 kts 183°
2026-05-07 20:35 53.91773 -5.74650 13449 ft 274 kts 183°
2026-05-07 20:35 53.89865 -5.74652 13060 ft 274 kts 184°
2026-05-07 20:35 53.87960 -5.74751 12675 ft 274 kts 185°
2026-05-07 20:35 53.86056 -5.74902 12296 ft 274 kts 185°
2026-05-07 20:36 53.84149 -5.75043 11924 ft 274 kts 185°
2026-05-07 20:36 53.82247 -5.75175 11562 ft 273 kts 185°
2026-05-07 20:36 53.80344 -5.75308 11201 ft 273 kts 185°
2026-05-07 20:36 53.78498 -5.75751 10856 ft 265 kts 199°
2026-05-07 20:37 53.76765 -5.76836 10523 ft 265 kts 202°
2026-05-07 20:37 53.75034 -5.77923 10187 ft 266 kts 200°
2026-05-07 20:37 53.73266 -5.78878 9864 ft 266 kts 197°
2026-05-07 20:37 53.71489 -5.79712 9501 ft 265 kts 196°
2026-05-07 20:38 53.69736 -5.80514 9147 ft 264 kts 196°
2026-05-07 20:38 53.67969 -5.81325 8784 ft 263 kts 197°
2026-05-07 20:38 53.66209 -5.82139 8450 ft 262 kts 197°
2026-05-07 20:38 53.64460 -5.82973 8116 ft 261 kts 197°
2026-05-07 20:39 53.62710 -5.83811 7779 ft 260 kts 197°
2026-05-07 20:39 53.60972 -5.84645 7446 ft 260 kts 197°
2026-05-07 20:39 53.59245 -5.85476 7144 ft 254 kts 197°
2026-05-07 20:39 53.57589 -5.86267 7047 ft 243 kts 197°
2026-05-07 20:40 53.55992 -5.87028 7000 ft 235 kts 197°
2026-05-07 20:40 53.54431 -5.87775 6799 ft 235 kts 197°
2026-05-07 20:40 53.52838 -5.88541 6462 ft 240 kts 197°
2026-05-07 20:40 53.51215 -5.89314 6102 ft 243 kts 197°
2026-05-07 20:41 53.49581 -5.90094 5743 ft 245 kts 197°
2026-05-07 20:41 53.47928 -5.90881 5386 ft 247 kts 197°
2026-05-07 20:41 53.46300 -5.91658 5042 ft 246 kts 197°
2026-05-07 20:41 53.44659 -5.92443 4693 ft 245 kts 197°
2026-05-07 20:42 53.43025 -5.93223 4312 ft 243 kts 197°
2026-05-07 20:42 53.41605 -5.94530 3910 ft 231 kts 227°
2026-05-07 20:42 53.40910 -5.96870 3617 ft 221 kts 253°
2026-05-07 20:42 53.40589 -5.99329 3333 ft 214 kts 268°
2026-05-07 20:43 53.40774 -6.01763 3053 ft 209 kts 277°
2026-05-07 20:43 53.40929 -6.04174 2764 ft 206 kts 272°
2026-05-07 20:43 53.41015 -6.06537 2474 ft 196 kts 273°
2026-05-07 20:43 53.41150 -6.08721 2204 ft 181 kts 274°
2026-05-07 20:44 53.41265 -6.10719 1966 ft 162 kts 272°
2026-05-07 20:44 53.41349 -6.12495 1751 ft 146 kts 272°
2026-05-07 20:44 53.41435 -6.14127 1550 ft 131 kts 272°
2026-05-07 20:44 53.41514 -6.15522 1384 ft 115 kts 272°
2026-05-07 20:45 53.41582 -6.16839 1234 ft 113 kts 271°
2026-05-07 20:45 53.41647 -6.18162 1064 ft 115 kts 271°
2026-05-07 20:45 53.41724 -6.19490 918 ft 115 kts 272°
2026-05-07 20:45 53.41794 -6.20838 761 ft 118 kts 273°
2026-05-07 20:46 53.41866 -6.22208 581 ft 117 kts 273°
2026-05-07 20:46 53.41943 -6.23542 427 ft 114 kts 272°
2026-05-07 20:46 53.42015 -6.24857 293 ft 114 kts 272°
2026-05-07 20:46 53.42086 -6.26137 208 ft 100 kts 274°
2026-05-07 20:47 53.42137 -6.27098 209 ft 60 kts 275°
2026-05-07 20:47 53.42175 -6.27699 206 ft 44 kts 283°
2026-05-07 20:47 53.42269 -6.28048 208 ft 20 kts 300°
2026-05-07 20:47 53.42355 -6.28109 211 ft 10 kts 41°
2026-05-07 20:48 53.42358 -6.27973 207 ft 14 kts 96°
2026-05-07 20:48 53.42347 -6.27791 207 ft 17 kts 95°
2026-05-07 20:48 53.42336 -6.27584 207 ft 19 kts 95°
2026-05-07 20:48 53.42324 -6.27357 207 ft 20 kts 95°
2026-05-07 20:49 53.42311 -6.27120 212 ft 21 kts 95°
2026-05-07 20:49 53.42298 -6.26883 207 ft 20 kts 95°
2026-05-07 20:49 53.42286 -6.26664 207 ft 18 kts 96°
2026-05-07 20:49 53.42275 -6.26459 207 ft 17 kts 96°
2026-05-07 20:50 53.42265 -6.26264 207 ft 16 kts 88°
2026-05-07 20:50 53.42308 -6.26085 211 ft 19 kts 50°
2026-05-07 20:50 53.42406 -6.25915 207 ft 22 kts 46°
2026-05-07 20:50 53.42512 -6.25730 207 ft 22 kts 45°
2026-05-07 20:51 53.42642 -6.25730 207 ft 19 kts 336°
2026-05-07 20:51 53.42750 -6.25648 213 ft 20 kts 46°
2026-05-07 20:51 53.42850 -6.25483 208 ft 22 kts 47°
2026-05-07 20:51 53.42949 -6.25285 214 ft 21 kts 69°
2026-05-07 20:52 53.42959 -6.25115 207 ft 11 kts 96°
2026-05-07 20:52 53.42953 -6.25000 207 ft 8 kts 95°
2026-05-07 20:52 53.42928 -6.24969 211 ft 2 kts 185°
2026-05-07 20:52 53.42912 -6.24971 207 ft 2 kts 185°
2026-05-07 20:53 53.42910 -6.24972 207 ft 0 kts 185°